FW7266 Weather Reports


Display with metric or nautical units.
time (UTC)temp
F
wind
direction
speed
MPH
gust
MPH
rain 1hr
in
rain 24hr
in
rain mn
in
humidity
%
barometer
mb
20240229124541 12 88 4.0 10.0 0.00 0.00 0.00 67 1020.5
20240229123039 11 135 3.0 8.0 0.00 0.00 0.00 66 1020.5
20240229121536 11 126 4.0 9.0 0.00 0.00 0.00 65 1020.7
20240229120036 11 109 3.0 8.0 0.00 0.00 0.00 65 1020.8
20240229114537 11 105 3.0 8.0 0.00 0.00 0.00 65 1021.0
20240229113048 11 103 3.0 9.0 0.00 0.00 0.00 65 1021.2
20240229111534 11 121 3.0 9.0 0.00 0.00 0.00 65 1021.3
20240229110039 11 155 3.0 8.0 0.00 0.00 0.00 64 1021.3
20240229104544 11 71 3.0 7.0 0.00 0.00 0.00 64 1021.4
20240229103037 11 118 3.0 7.0 0.00 0.00 0.00 64 1021.4
20240229101541 11 101 3.0 8.0 0.00 0.00 0.00 63 1021.6
20240229100038 11 89 3.0 8.0 0.00 0.00 0.00 63 1021.7
20240229094536 11 115 3.0 8.0 0.00 0.00 0.00 63 1022.0
20240229093045 10 140 2.0 6.0 0.00 0.00 0.00 64 1022.1
20240229091540 10 112 3.0 7.0 0.00 0.00 0.00 65 1022.2
20240229090040 10 113 3.0 6.0 0.00 0.00 0.00 65 1022.5
20240229084539 10 109 2.0 7.0 0.00 0.00 0.00 62 1022.7
20240229083031 10 88 2.0 7.0 0.00 0.00 0.00 65 1022.9
20240229081543 10 93 2.0 7.0 0.00 0.00 0.00 66 1022.7
20240229080044 9 122 2.0 6.0 0.00 0.00 0.00 67 1023.1
20240229074555 9 106 1.0 3.0 0.00 0.00 0.00 68 1023.5
20240229073038 9 109 2.0 7.0 0.00 0.00 0.00 68 1023.5
20240229071541 9 0 1.0 5.0 0.00 0.00 0.00 71 1024.0
20240229070045 9 125 2.0 7.0 0.00 0.00 0.00 70 1023.8
20240229064545 8 101 1.0 3.0 0.00 0.00 0.00 73 1023.6
20240229063046 8 97 1.0 6.0 0.00 0.00 0.00 74 1023.6
20240229061532 8 84 1.0 4.0 0.00 0.00 0.00 75 1023.3
20240229060045 8 96 2.0 6.0 0.00 0.00 0.00 74 1023.2
20240229054542 9 96 2.0 4.0 0.00 0.00 0.00 71 1023.3
20240229053038 9 96 2.0 4.0 0.00 0.00 0.00 70 1023.4
20240229051538 9 313 1.0 3.0 0.00 0.00 0.00 68 1023.6
20240229050038 9 313 0.0 3.0 0.00 0.00 0.00 69 1023.9
20240229044548 9 0 0.0 2.0 0.00 0.00 0.00 69 1023.8
20240229043041 10 313 0.0 1.0 0.00 0.00 0.00 69 1023.9
20240229041536 10 0 0.0 0.0 0.00 0.00 0.00 68 1024.0
20240229040034 10 0 0.0 2.0 0.00 0.00 0.00 65 1024.0
20240229034536 10 313 0.0 0.0 0.00 0.00 0.00 62 1023.8
20240229033040 10 0 0.0 1.0 0.00 0.00 0.00 62 1023.6
20240229031546 11 0 0.0 1.0 0.00 0.00 0.00 60 1023.8
20240229030034 11 313 0.0 3.0 0.00 0.00 0.00 59 1023.6
20240229024552 10 0 0.0 2.0 0.00 0.00 0.00 62 1023.7
20240229023036 10 240 0.0 2.0 0.00 0.00 0.00 63 1023.7
20240229021535 11 0 0.0 3.0 0.00 0.00 0.00 58 1023.7
20240229020041 11 240 0.0 2.0 0.00 0.00 0.00 57 1023.6
20240229014543 11 0 0.0 4.0 0.00 0.00 0.00 56 1023.6
20240229013046 12 240 1.0 4.0 0.00 0.00 0.00 53 1023.6
20240229011546 12 0 0.0 4.0 0.00 0.00 0.00 53 1023.6
20240229010045 12 273 2.0 6.0 0.00 0.00 0.00 51 1023.7
20240229004542 12 292 1.0 6.0 0.00 0.00 0.00 52 1023.6
20240229003046 12 283 2.0 9.0 0.00 0.00 0.00 51 1023.1
20240229001535 13 293 3.0 8.0 0.00 0.00 0.00 49 1023.0
20240229000055 13 304 3.0 9.0 0.00 0.00 0.00 50 1022.8
20240228234606 14 295 3.0 11.0 0.00 0.00 0.00 48 1022.5
20240228233039 14 278 4.0 11.0 0.00 0.00 0.00 47 1022.5
20240228231543 14 294 4.0 12.0 0.00 0.00 0.00 44 1022.5
20240228230050 15 280 5.0 12.0 0.00 0.00 0.00 43 1022.3
20240228224536 15 226 5.0 12.0 0.00 0.00 0.00 44 1022.1
20240228223050 15 247 4.0 11.0 0.00 0.00 0.00 43 1022.2
20240228221533 15 283 5.0 12.0 0.00 0.00 0.00 43 1022.1
20240228220036 15 256 4.0 16.0 0.00 0.00 0.00 43 1022.1
20240228214539 15 286 5.0 13.0 0.00 0.00 0.00 43 1022.1
20240228213033 14 298 8.0 14.0 0.00 0.00 0.00 41 1022.1
20240228211538 14 308 5.0 15.0 0.00 0.00 0.00 44 1021.9
20240228210038 14 292 7.0 14.0 0.00 0.00 0.00 39 1022.0
20240228204539 14 327 7.0 15.0 0.00 0.00 0.00 38 1021.8
20240228203036 14 260 6.0 14.0 0.00 0.00 0.00 45 1021.6
20240228201534 14 299 6.0 13.0 0.00 0.00 0.00 44 1021.6
20240228200036 13 297 9.0 18.0 0.00 0.00 0.00 41 1021.5
20240228194541 12 350 7.0 17.0 0.00 0.00 0.00 42 1021.6
20240228193053 12 317 5.0 16.0 0.00 0.00 0.00 41 1021.6
20240228191531 12 319 7.0 12.0 0.00 0.00 0.00 41 1021.6
20240228190038 12 264 6.0 13.0 0.00 0.00 0.00 41 1021.7
20240228184546 12 290 5.0 12.0 0.00 0.00 0.00 46 1021.7
20240228183055 11 319 5.0 14.0 0.00 0.00 0.00 48 1021.9
20240228181549 10 307 5.0 12.0 0.00 0.00 0.00 49 1022.1
20240228180054 9 303 5.0 14.0 0.00 0.00 0.00 49 1022.1
20240228174539 9 285 4.0 13.0 0.00 0.00 0.00 51 1021.9
20240228173101 7 288 4.0 12.0 0.00 0.00 0.00 53 1021.7
20240228171535 7 302 4.0 12.0 0.00 0.00 0.00 55 1021.7
20240228170042 6 334 4.0 12.0 0.00 0.00 0.00 51 1021.7
20240228164557 5 355 5.0 14.0 0.00 0.00 0.00 51 1021.7
20240228163038 4 66 3.0 11.0 0.00 0.00 0.00 56 1021.7
20240228161537 3 308 4.0 12.0 0.00 0.00 0.00 56 1021.6
20240228160037 3 323 4.0 12.0 0.00 0.00 0.00 59 1021.3
20240228154538 2 331 5.0 11.0 0.00 0.00 0.00 61 1021.6
20240228153039 1 341 4.0 13.0 0.00 0.00 0.00 62 1021.6
20240228151538 0 343 4.0 10.0 0.00 0.00 0.00 64 1021.4
20240228150038 0 325 3.0 10.0 0.00 0.00 0.00 65 1021.2
20240228144538 0 311 3.0 9.0 0.00 0.00 0.00 67 1020.8
20240228143036 0 315 3.0 10.0 0.00 0.00 0.00 67 1020.8
20240228141533 0 326 3.0 8.0 0.00 0.00 0.00 69 1020.6
20240228140035 -1 315 3.0 8.0 0.00 0.00 0.00 69 1020.6
20240228134547 -1 315 3.0 10.0 0.00 0.00 0.00 70 1020.1
20240228133055 -1 309 3.0 8.0 0.00 0.00 0.00 71 1020.1
20240228131542 -1 346 2.0 9.0 0.00 0.00 0.00 71 1019.8
20240228130050 -1 304 3.0 9.0 0.00 0.00 0.00 70 1019.6